Location: Starlight Observatory
(38.4029°N, 85.8936°W)
Time: 04:32:11
(UTC-05:00)

Amateur Radio Satellites - All Passes

Search period start: 11 December 2017 04:02
Search period end: 12 December 2017 04:02
Location: Starlight Observatory, 38.4029°N, 85.8936°W

Satellite Date Start Highest point End Downlink Frequencies (MHz)
Time Altitude Azimuth
M-CUBED/EXP-1 PRIME 11 Dec 04:09:56 04:14:29 65° 105° (ESE) 04:18:46 437.505
KKS-1 11 Dec 04:10:36 04:13:32 17° 66° (ENE) 04:16:29 437.445
CUBESAT XI-V 11 Dec 04:37:28 04:41:56 47° 261° (W) 04:46:27 437.345
FALCONSAT 3 11 Dec 04:42:28 04:45:43 30° 198° (SSW) 04:48:57 435.103
BEESAT 11 Dec 04:49:08 04:51:15 13° 268° (W) 04:53:24 436.000
AO-7 11 Dec 04:51:15 04:59:36 73° 291° (WNW) 05:07:55 .
STARS 11 Dec 05:04:48 05:08:25 26° 69° (ENE) 05:12:02 437.465
DOVE 4 11 Dec 05:05:08 05:09:10 30° 95° (E) 05:12:59 437.250
YUBILEINY 11 Dec 05:24:37 05:32:31 36° 287° (WNW) 05:40:32 435.215
ITAMSAT 1 11 Dec 05:32:25 05:36:49 29° 293° (WNW) 05:41:12 435.822/435.867
BEESAT 3 11 Dec 05:35:02 05:37:32 16° 46° (NE) 05:40:02 437.485
PCSat 11 Dec 05:36:34 05:42:02 86° 244° (WSW) 05:47:26 145.827
KKS-1 11 Dec 05:45:30 05:49:44 42° 261° (W) 05:53:59 437.445
M-CUBED/EXP-1 PRIME 11 Dec 05:46:00 05:48:13 14° 302° (WNW) 05:50:23 437.505
BEESAT 2 11 Dec 06:06:02 06:07:02 11° 42° (NE) 06:08:01 435.950
LilacSat-2 11 Dec 06:07:08 06:10:24 25° 96° (E) 06:13:38 437.200
XW-2D 11 Dec 06:26:52 06:30:33 42° 98° (E) 06:34:12 145.860 - 145.880
CUTE-I 11 Dec 06:28:16 06:33:07 34° 97° (E) 06:37:54 437.470
STRAND 1 11 Dec 06:35:33 06:39:55 29° 68° (ENE) 06:44:18 437.568
STARS 11 Dec 06:40:56 06:44:38 26° 263° (W) 06:48:21 437.465
XW-2B 11 Dec 06:42:29 06:46:19 66° 101° (E) 06:50:07 145.730 - 145.750
DOVE 4 11 Dec 06:43:07 06:46:39 22° 293° (WNW) 06:50:03 437.250
FO-29 11 Dec 06:45:26 06:50:31 19° 58° (ENE) 06:55:40 435.910
KAITUO 1B 11 Dec 06:45:52 06:49:35 50° 100° (E) 06:53:16 145.475/437.950
AO-7 11 Dec 06:46:22 06:50:56 16° 310° (NW) 06:55:30 .
NUDT-PHONESAT 11 Dec 06:49:32 06:53:14 53° 100° (E) 06:56:54 437.300
AO-85 11 Dec 06:55:46 06:58:22 14° 44° (NE) 07:01:02 145.980
XW-2F 11 Dec 06:58:16 07:02:06 81° 283° (WNW) 07:05:56 145.980 - 146.000
XW-2C 11 Dec 07:09:40 07:13:26 52° 285° (WNW) 07:17:10 145.795 - 145.815
BEESAT 3 11 Dec 07:11:33 07:15:18 44° 244° (WSW) 07:18:58 437.485
JUGNU 11 Dec 07:30:26 07:32:40 12° 179° (S) 07:34:52 437.505
SEEDS 11 Dec 07:31:36 07:35:29 33° 97° (E) 07:39:17 437.485
BEESAT 2 11 Dec 07:41:17 07:45:19 85° 240° (WSW) 07:49:16 435.950
LilacSat-2 11 Dec 07:41:35 07:44:30 20° 291° (WNW) 07:47:24 437.200
CUTE 1.7 + AOD 2 11 Dec 07:46:13 07:50:32 86° 105° (ESE) 07:54:48 437.475
HO-68 11 Dec 07:47:32 07:54:43 72° 103° (ESE) 08:01:50 435.675
CUBEBUG 2 11 Dec 07:52:05 07:56:15 56° 100° (E) 08:00:31 437.445
UWE-3 11 Dec 08:00:26 08:04:27 38° 98° (E) 08:08:32 435.000/436.395/437.385
NO-84 11 Dec 08:01:52 08:04:49 51° 131° (SE) 08:07:59 435.350 FM
XW-2D 11 Dec 08:02:36 08:04:18 13° 294° (WNW) 08:06:01 145.860 - 145.880
AAUSAT CUBESAT 2 11 Dec 08:03:05 08:06:49 31° 97° (E) 08:10:30 437.432
CUTE-I 11 Dec 08:08:31 08:13:00 28° 293° (WNW) 08:17:26 437.470
STRAND 1 11 Dec 08:14:29 08:19:00 31° 263° (W) 08:23:31 437.568
KAITUO 1B 11 Dec 08:22:14 08:23:04 11° 295° (WNW) 08:23:53 145.475/437.950
FO-29 11 Dec 08:26:50 08:34:26 90° 68° (ENE) 08:42:22 435.910
XW-2A 11 Dec 08:27:08 08:30:33 67° 101° (E) 08:33:57 145.665 - 145.685
O/OREOS (USA 219) 11 Dec 08:27:46 08:29:44 13° 98° (E) 08:31:42 437.305
TIGRISAT 11 Dec 08:28:41 08:29:25 10° 63° (ENE) 08:30:08 435.000
UNISAT 6 11 Dec 08:29:47 08:31:29 12° 65° (ENE) 08:33:12 437.425
AO-85 11 Dec 08:34:28 08:39:20 87° 240° (WSW) 08:44:31 145.980
ZACube-1 11 Dec 08:34:31 08:38:43 48° 99° (E) 08:42:59 437.345
Oscar 11 11 Dec 09:01:18 09:05:35 54° 100° (E) 09:09:51 .
SEEDS 11 Dec 09:07:51 09:10:54 19° 292° (WNW) 09:13:54 437.485
AO-73 11 Dec 09:10:56 09:15:15 73° 284° (WNW) 09:19:39 145.935
CUBEBUG 2 11 Dec 09:30:48 09:32:24 12° 295° (WNW) 09:34:00 437.445
HO-68 11 Dec 09:36:36 09:41:44 22° 301° (WNW) 09:46:50 435.675
UWE-3 11 Dec 09:37:46 09:40:36 17° 292° (WNW) 09:43:28 435.000/436.395/437.385
AAUSAT CUBESAT 2 11 Dec 09:39:01 09:42:02 19° 292° (WNW) 09:45:00 437.432
NO-84 11 Dec 09:40:12 09:42:20 16° 331° (NNW) 09:44:34 435.350 FM
DELFI C3 11 Dec 09:42:29 09:45:54 28° 96° (E) 09:49:18 145.870
EO-88 11 Dec 09:46:49 09:48:39 13° 93° (E) 09:50:28 145.990 - 145.960
SRMSAT 11 Dec 09:58:37 10:00:46 12° 176° (S) 10:02:55 437.500
TIGRISAT 11 Dec 10:01:13 10:05:32 67° 259° (WSW) 10:09:48 435.000
UNISAT 6 11 Dec 10:03:26 10:07:43 57° 260° (W) 10:11:57 437.425
O/OREOS (USA 219) 11 Dec 10:04:05 10:08:35 56° 293° (WNW) 10:13:06 437.305
ZACube-1 11 Dec 10:12:14 10:14:35 15° 294° (WNW) 10:16:58 437.345
FO-29 11 Dec 10:15:46 10:20:18 17° 273° (W) 10:24:59 435.910
PRISM 11 Dec 10:19:16 10:23:22 62° 74° (ENE) 10:27:29 437.425
AIST 2D 11 Dec 10:22:34 10:24:58 18° 69° (ENE) 10:27:22 435.315
Oscar 11 11 Dec 10:39:12 10:41:13 13° 295° (WNW) 10:43:14 .
Max Valier Satellite 11 Dec 10:41:26 10:45:09 72° 283° (WNW) 10:48:52 145.860
QB50P2 11 Dec 10:43:00 10:45:09 14° 65° (ENE) 10:47:17 145.880/145.840
DUCHIFAT 1 11 Dec 10:54:58 10:56:44 13° 65° (ENE) 10:58:32 145.980
NANOSAT C BR1 11 Dec 11:17:11 11:20:39 26° 70° (ENE) 11:24:08 145.865
DELFI C3 11 Dec 11:17:36 11:20:26 19° 292° (WNW) 11:23:15 145.870
EO-88 11 Dec 11:19:02 11:22:22 33° 287° (WNW) 11:25:42 145.990 - 145.960
EO-79 11 Dec 11:29:18 11:33:14 40° 72° (ENE) 11:37:10 145.935-145.965
SRMSAT 11 Dec 11:47:22 11:49:02 11° 187° (S) 11:50:42 437.500
POLYITAN 1 11 Dec 11:50:55 11:55:06 75° 75° (ENE) 11:59:17 437.675
BUGSAT 1 11 Dec 11:51:07 11:52:42 12° 65° (ENE) 11:54:16 437.445
AIST 2D 11 Dec 11:55:06 11:57:56 23° 264° (W) 12:00:48 435.315
SPROUT 11 Dec 11:59:45 12:00:49 11° 91° (E) 12:01:55 437.525
LO-87 11 Dec 12:01:46 12:05:18 89° 104° (ESE) 12:08:50 145.935 - 145.965
ESTCUBE 1 11 Dec 12:08:22 12:12:55 68° 101° (E) 12:17:25 437.505/2401.250
QB50P2 11 Dec 12:16:27 12:20:30 47° 260° (W) 12:24:34 145.880/145.840
VELOX 1 11 Dec 12:24:31 12:26:31 13° 92° (E) 12:28:32 145.980
Oscar 19 11 Dec 12:27:16 12:31:09 22° 66° (ENE) 12:35:04 437.125/150
DUCHIFAT 1 11 Dec 12:27:52 12:31:56 51° 260° (W) 12:36:00 145.980
Gurwin Techsat 1B 11 Dec 12:38:35 12:42:31 22° 65° (ENE) 12:46:28 435.225
NANOSAT C BR1 11 Dec 12:52:56 12:56:17 23° 265° (W) 12:59:38 145.865
AO-91 11 Dec 12:56:35 13:01:19 40° 73° (ENE) 13:05:42 145.960
nSIGHT-1 11 Dec 13:02:28 13:05:39 71° 138° (SE) 13:08:52 .
EO-79 11 Dec 13:06:45 13:09:08 15° 267° (W) 13:11:31 145.935-145.965
BUGSAT 1 11 Dec 13:23:37 13:27:35 51° 260° (W) 13:31:32 437.445
ISS 11 Dec 13:30:30 13:33:48 78° 321° (NW) 13:37:05 437.550
DX 1 11 Dec 13:31:54 13:34:22 15° 93° (E) 13:36:49 434.975-435.025
SPROUT 11 Dec 13:32:52 13:37:01 56° 286° (WNW) 13:41:10 437.525
YUBILEINY 11 Dec 13:40:13 13:46:32 21° 66° (ENE) 13:52:46 435.215
ESTCUBE 1 11 Dec 13:47:33 13:49:06 12° 297° (WNW) 13:50:38 437.505/2401.250
AO-7 11 Dec 13:57:31 14:04:21 30° 58° (ENE) 14:11:13 .
VELOX 1 11 Dec 13:58:57 14:03:15 51° 287° (WNW) 14:07:30 145.980
Oscar 19 11 Dec 14:05:20 14:10:10 42° 261° (W) 14:15:02 437.125/150
Gurwin Techsat 1B 11 Dec 14:17:01 14:22:06 46° 261° (W) 14:27:14 435.225
50 SAT 11 Dec 14:25:48 14:28:57 76° 101° (ESE) 14:32:05 437.505
AO-91 11 Dec 14:33:55 14:37:46 21° 265° (W) 14:41:25 145.960
NO-84 11 Dec 14:35:12 14:38:23 24° 34° (NE) 14:41:43 435.350 FM
nSIGHT-1 11 Dec 14:39:56 14:42:10 17° 336° (NNW) 14:44:24 .
RS-15 11 Dec 14:44:32 14:55:41 43° 107° (ESE) 15:06:48 29.354- 29.394
M-CUBED/EXP-1 PRIME 11 Dec 14:53:16 14:57:23 59° 69° (ENE) 15:01:48 437.505
UKube-1 11 Dec 14:58:40 15:03:00 90° 104° (ESE) 15:07:17 .
DX 1 11 Dec 15:06:37 15:10:44 44° 288° (WNW) 15:14:50 434.975-435.025
ISS 11 Dec 15:08:46 15:10:44 15° 339° (NNW) 15:12:42 437.550
ITAMSAT 1 11 Dec 15:09:10 15:14:04 43° 71° (ENE) 15:18:59 435.822/435.867
BEESAT 11 Dec 15:11:08 15:14:11 17° 93° (E) 15:17:11 436.000
MOZHAYETS 4 11 Dec 15:21:52 15:26:02 32° 97° (E) 15:30:10
YUBILEINY 11 Dec 15:35:28 15:44:19 79° 266° (W) 15:53:04 435.215
ITUPSAT 1 11 Dec 15:35:59 15:40:10 30° 97° (E) 15:44:20 437.325
AO-7 11 Dec 15:48:23 15:56:32 62° 256° (WSW) 16:04:48 .
SO-50 11 Dec 15:55:20 15:58:45 22° 111° (ESE) 16:02:12 436.795
DOVE 4 11 Dec 16:07:56 16:12:31 31° 70° (ENE) 16:17:03 437.250
NO-84 11 Dec 16:11:59 16:15:50 48° 229° (SW) 16:19:52 435.350 FM
M-CUBED/EXP-1 PRIME 11 Dec 16:30:43 16:32:10 11° 266° (W) 16:33:38 437.505
CUBESAT XI-V 11 Dec 16:35:11 16:39:44 46° 99° (E) 16:44:15 437.345
BEESAT 11 Dec 16:47:36 16:52:09 46° 288° (WNW) 16:56:41 436.000
LilacSat-2 11 Dec 16:49:41 16:50:38 11° 65° (ENE) 16:51:35 437.200
ITAMSAT 1 11 Dec 16:49:46 16:53:40 21° 266° (W) 16:57:37 435.822/435.867
RS-15 11 Dec 16:55:42 17:07:48 59° 308° (NW) 17:19:51 29.354- 29.394
MOZHAYETS 4 11 Dec 16:59:22 17:02:59 23° 292° (WNW) 17:06:35
XW-2D 11 Dec 17:07:20 17:09:49 17° 68° (ENE) 17:12:19 145.860 - 145.880
ITUPSAT 1 11 Dec 17:13:54 17:17:51 27° 292° (WNW) 17:21:48 437.325
XW-2B 11 Dec 17:22:23 17:25:28 24° 70° (ENE) 17:28:34 145.730 - 145.750
KAITUO 1B 11 Dec 17:24:47 17:27:26 19° 69° (ENE) 17:30:06 145.475/437.950
NUDT-PHONESAT 11 Dec 17:27:34 17:30:11 19° 69° (ENE) 17:32:49 437.300
SO-50 11 Dec 17:34:51 17:38:58 36° 308° (NW) 17:43:09 436.795
YUBILEINY 11 Dec 17:35:50 17:39:31 13° 285° (WNW) 17:43:12 435.215
XW-2F 11 Dec 17:37:17 17:40:43 35° 73° (ENE) 17:44:10 145.980 - 146.000
KKS-1 11 Dec 17:37:39 17:41:48 38° 98° (E) 17:45:55 437.445
DOVE 4 11 Dec 17:45:24 17:50:04 31° 264° (W) 17:54:42 437.250
CUTE-I 11 Dec 17:48:22 17:53:31 49° 71° (ENE) 17:58:42 437.470
XW-2C 11 Dec 17:48:50 17:52:30 54° 75° (ENE) 17:56:14 145.795 - 145.815
nSIGHT-1 11 Dec 17:55:38 17:56:54 12° 17° (NNE) 17:58:10 .
CUBESAT XI-V 11 Dec 18:13:38 18:16:42 17° 294° (WNW) 18:19:45 437.345
HO-68 11 Dec 18:14:19 18:21:04 46° 67° (ENE) 18:27:51 435.675
LilacSat-2 11 Dec 18:20:44 18:24:24 49° 261° (W) 18:28:08 437.200
SEEDS 11 Dec 18:22:12 18:25:14 19° 68° (ENE) 18:28:15 437.485
ISS 11 Dec 18:24:10 18:26:03 14° 20° (NNE) 18:27:57 437.550
STARS 11 Dec 18:30:42 18:35:01 59° 101° (E) 18:39:17 437.465
PCSat 11 Dec 18:36:10 18:39:02 15° 103° (ESE) 18:41:56 145.827
CUTE 1.7 + AOD 2 11 Dec 18:36:57 18:41:00 47° 74° (ENE) 18:45:07 437.475
O/OREOS (USA 219) 11 Dec 18:37:09 18:40:30 20° 58° (ENE) 18:43:49 437.305
XW-2D 11 Dec 18:40:26 18:43:44 29° 263° (W) 18:47:05 145.860 - 145.880
CUBEBUG 2 11 Dec 18:48:42 18:52:37 37° 73° (ENE) 18:56:29 437.445
STRAND 1 11 Dec 18:50:37 18:51:00 10° 89° (E) 18:51:23 437.568
AAUSAT CUBESAT 2 11 Dec 18:52:12 18:55:00 18° 67° (ENE) 18:57:49 437.432
UWE-3 11 Dec 18:56:21 18:59:45 24° 70° (ENE) 19:03:08 435.000/436.395/437.385
XW-2B 11 Dec 18:56:47 18:59:34 20° 265° (W) 19:02:23 145.730 - 145.750
XW-2A 11 Dec 18:57:29 18:59:37 16° 69° (ENE) 19:01:47 145.665 - 145.685
KAITUO 1B 11 Dec 18:58:05 19:01:12 25° 264° (W) 19:04:23 145.475/437.950
NUDT-PHONESAT 11 Dec 19:00:48 19:03:50 24° 264° (W) 19:06:54 437.300
XW-2F 11 Dec 19:13:00 19:14:55 14° 268° (W) 19:16:52 145.980 - 146.000
RS-15 11 Dec 19:14:40 19:23:42 23° 337° (NNW) 19:32:36 29.354- 29.394
KKS-1 11 Dec 19:15:01 19:18:02 18° 294° (WNW) 19:21:03 437.445
ZACube-1 11 Dec 19:29:06 19:32:40 29° 71° (ENE) 19:36:16 437.345
CUTE-I 11 Dec 19:30:00 19:33:48 19° 267° (W) 19:37:36 437.470
nSIGHT-1 11 Dec 19:30:36 19:33:45 48° 36° (NE) 19:36:51 .
FO-29 11 Dec 19:42:17 19:45:28 14° 85° (E) 19:48:30 435.910
Oscar 11 11 Dec 19:54:31 19:58:22 33° 71° (ENE) 20:02:16 .
SEEDS 11 Dec 19:56:51 20:00:39 32° 263° (W) 20:04:28 437.485
ISS 11 Dec 19:59:44 20:03:02 72° 39° (NE) 20:06:16 437.550
HO-68 11 Dec 20:02:36 20:08:52 32° 263° (W) 20:15:13 435.675
AO-73 11 Dec 20:04:38 20:08:44 68° 76° (ENE) 20:12:51 145.935
STARS 11 Dec 20:09:02 20:10:48 12° 297° (WNW) 20:12:34 437.465
CUTE 1.7 + AOD 2 11 Dec 20:15:07 20:17:05 13° 269° (W) 20:19:03 437.475
O/OREOS (USA 219) 11 Dec 20:15:53 20:20:00 36° 255° (WSW) 20:24:06 437.305
PCSat 11 Dec 20:16:24 20:21:47 68° 299° (WNW) 20:27:12 145.827
STRAND 1 11 Dec 20:25:38 20:30:45 81° 284° (WNW) 20:35:49 437.568
AAUSAT CUBESAT 2 11 Dec 20:26:20 20:30:09 35° 263° (W) 20:33:59 437.432
CUBEBUG 2 11 Dec 20:26:41 20:29:21 16° 267° (W) 20:31:59 437.445
DELFI C3 11 Dec 20:27:12 20:29:19 14° 66° (ENE) 20:31:26 145.870
XW-2A 11 Dec 20:29:27 20:32:07 22° 264° (W) 20:34:49 145.665 - 145.685
UWE-3 11 Dec 20:32:44 20:36:07 24° 264° (W) 20:39:30 435.000/436.395/437.385
BEESAT 3 11 Dec 20:58:57 21:02:39 38° 115° (ESE) 21:06:22 437.485
ZACube-1 11 Dec 21:05:56 21:08:58 20° 266° (W) 21:12:00 437.345
nSIGHT-1 11 Dec 21:07:44 21:09:39 15° 231° (SW) 21:11:34 .
Max Valier Satellite 11 Dec 21:18:29 21:21:49 35° 73° (ENE) 21:25:11 145.860
FO-29 11 Dec 21:24:28 21:31:35 86° 287° (WNW) 21:37:47 435.910
BEESAT 2 11 Dec 21:31:10 21:34:20 23° 112° (ESE) 21:37:32 435.950
Oscar 11 11 Dec 21:31:31 21:34:34 19° 266° (W) 21:37:39 .
RS-15 11 Dec 21:34:28 21:42:36 20° 14° (NNE) 21:50:29 29.354- 29.394
ISS 11 Dec 21:38:36 21:39:03 10° 233° (SW) 21:39:29 437.550
TIGRISAT 11 Dec 21:54:11 21:57:50 26° 96° (E) 22:01:32 435.000
EO-88 11 Dec 21:54:12 21:57:49 73° 76° (ENE) 22:01:27 145.990 - 145.960
UNISAT 6 11 Dec 21:56:22 22:00:13 31° 97° (E) 22:04:07 437.425
DELFI C3 11 Dec 21:59:53 22:03:40 41° 261° (W) 22:07:28 145.870
PCSat 11 Dec 22:04:26 22:06:12 11° 319° (NW) 22:07:59 145.827
LO-87 11 Dec 22:36:15 22:39:13 25° 71° (ENE) 22:42:12 145.935 - 145.965
BEESAT 3 11 Dec 22:37:26 22:40:18 19° 312° (NW) 22:43:12 437.485
AO-85 11 Dec 22:48:10 22:51:46 39° 115° (ESE) 22:55:32 145.980
Max Valier Satellite 11 Dec 22:54:11 22:55:46 12° 268° (W) 22:57:21 145.860
ESTCUBE 1 11 Dec 23:06:04 23:10:24 50° 73° (ENE) 23:14:47 437.505/2401.250
BEESAT 2 11 Dec 23:08:22 23:11:53 29° 308° (NW) 23:15:28 435.950
FO-29 11 Dec 23:11:41 23:15:21 15° 305° (NW) 23:18:50 435.910
FALCONSAT 3 11 Dec 23:13:26 23:15:24 14° 153° (SSE) 23:17:22 435.103
AIST 2D 11 Dec 23:20:46 23:23:46 25° 96° (E) 23:26:44 435.315
VELOX 1 11 Dec 23:21:40 23:22:37 11° 62° (ENE) 23:23:33 145.980
TIGRISAT 11 Dec 23:30:55 23:34:25 25° 291° (WNW) 23:37:58 435.000
UNISAT 6 11 Dec 23:33:27 23:36:44 21° 292° (WNW) 23:40:04 437.425
PRISM 11 Dec 23:36:56 23:41:00 64° 285° (WNW) 23:45:02 437.425
POLYITAN 1 11 Dec 23:38:41 23:40:43 13° 92° (E) 23:42:46 437.675
RS-15 11 Dec 23:47:55 23:59:15 47° 46° (NE) 00:09:57 29.354- 29.394
QB50P2 12 Dec 00:02:42 00:06:23 29° 97° (E) 00:10:03 145.880/145.840
LO-87 12 Dec 00:10:19 00:12:36 16° 266° (W) 00:14:53 145.935 - 145.965
DUCHIFAT 1 12 Dec 00:13:22 00:16:52 25° 96° (E) 00:20:21 145.980
SPROUT 12 Dec 00:23:57 00:28:12 86° 82° (E) 00:32:28 437.525
DX 1 12 Dec 00:27:06 00:28:40 12° 63° (ENE) 00:30:15 434.975-435.025
SO-50 12 Dec 00:27:29 00:30:33 17° 45° (NE) 00:33:38 436.795
AO-85 12 Dec 00:29:36 00:32:21 18° 314° (NW) 00:35:12 145.980
NANOSAT C BR1 12 Dec 00:37:23 00:41:32 58° 101° (E) 00:45:40 145.865
ESTCUBE 1 12 Dec 00:45:10 00:47:28 14° 268° (W) 00:49:47 437.505/2401.250
EO-79 12 Dec 00:50:26 00:54:39 84° 281° (W) 00:58:52 145.935-145.965
FALCONSAT 3 12 Dec 00:50:31 00:53:58 38° 166° (SSE) 00:57:24 435.103
50 SAT 12 Dec 00:51:17 00:53:16 16° 69° (ENE) 00:55:15 437.505
VELOX 1 12 Dec 00:53:58 00:58:25 73° 258° (WSW) 01:02:52 145.980
AIST 2D 12 Dec 00:54:22 00:56:43 17° 291° (WNW) 00:59:03 435.315
BUGSAT 1 12 Dec 01:06:58 01:10:11 23° 96° (E) 01:13:25 437.445
POLYITAN 1 12 Dec 01:12:40 01:16:42 46° 287° (WNW) 01:20:44 437.675
QB50P2 12 Dec 01:38:46 01:41:59 22° 291° (WNW) 01:45:12 145.880/145.840
DUCHIFAT 1 12 Dec 01:49:02 01:52:24 24° 291° (WNW) 01:55:45 145.980
UKube-1 12 Dec 01:51:08 01:55:23 61° 75° (ENE) 01:59:39 .
DX 1 12 Dec 01:59:57 02:04:17 63° 258° (WSW) 02:08:39 434.975-435.025
RS-15 12 Dec 02:00:42 02:11:50 53° 250° (WSW) 02:22:24 29.354- 29.394
SO-50 12 Dec 02:06:47 02:11:25 64° 242° (WSW) 02:16:06 436.795
NANOSAT C BR1 12 Dec 02:15:19 02:16:42 11° 296° (WNW) 02:18:06 145.865
BEESAT 12 Dec 02:16:19 02:19:25 18° 64° (ENE) 02:22:31 436.000
Oscar 19 12 Dec 02:17:53 02:23:06 77° 103° (ESE) 02:28:18 437.125/150
MOZHAYETS 4 12 Dec 02:22:25 02:26:12 26° 69° (ENE) 02:30:00
50 SAT 12 Dec 02:22:33 02:25:02 21° 264° (W) 02:27:32 437.505
AO-91 12 Dec 02:24:38 02:28:10 81° 283° (WNW) 02:31:31 145.960
FALCONSAT 3 12 Dec 02:29:13 02:32:49 53° 182° (S) 02:36:24 435.103
Gurwin Techsat 1B 12 Dec 02:34:23 02:39:44 79° 103° (ESE) 02:45:03 435.225
YUBILEINY 12 Dec 02:39:59 02:46:39 25° 81° (E) 02:53:20 435.215
ITUPSAT 1 12 Dec 02:41:15 02:45:22 30° 69° (ENE) 02:49:30 437.325
BUGSAT 1 12 Dec 02:42:10 02:45:27 24° 290° (WNW) 02:48:45 437.445
ITAMSAT 1 12 Dec 03:24:38 03:27:52 16° 93° (E) 03:31:04 435.822/435.867
PCSat 12 Dec 03:24:53 03:26:42 12° 41° (NE) 03:28:31 145.827
UKube-1 12 Dec 03:30:57 03:31:45 10° 269° (W) 03:32:34 .
CUBESAT XI-V 12 Dec 03:36:48 03:41:04 38° 71° (ENE) 03:45:23 437.345
BEESAT 12 Dec 03:52:12 03:56:47 47° 260° (W) 04:01:22 436.000
